This demonstration page uses our WeatherBlox Daily Observations layout. Learn more.

36.17497, -115.13722

Hourly Observations for April 27, 2018

Temp ( °F °C ) Dew Point ( °F °C ) Humidity (%) Winds ( mph kmh ) Pressure ( in mb ) Visibility ( mi km ) Precip ( " mm )
12:53 am 00:53 Clear 77 25 26 -3.3 15 15 Calm 29.77 1008 10 16.09344 0 0
1:53 am 01:53 Clear 75 23.9 25 -3.9 15 15 Calm 29.77 1008 10 16.09344 0 0
2:53 am 02:53 Clear 73 22.8 27 -2.8 18 18 NW 5 7 29.77 1008 10 16.09344 0 0
3:53 am 03:53 Clear 71 21.7 26 -3.3 19 19 NNW 5 7 29.8 1009 10 16.09344 0 0
4:53 am 04:53 Clear 69 20.6 27 -2.8 21 21 NNW 5 7 29.8 1009 10 16.09344 0 0
5:53 am 05:53 Sunny 68 20 28 -2.2 22 22 Calm 29.8 1009 10 16.09344 0 0
6:53 am 06:53 Sunny 70 21.1 29 -1.7 22 22 Calm 29.83 1010 10 16.09344 0 0
7:53 am 07:53 Sunny 75 23.9 26 -3.3 16 16 Calm 29.83 1010 10 16.09344 0 0
8:53 am 08:53 Sunny 78 25.6 28 -2.2 16 16 SE 5 7 29.83 1010 10 16.09344 0 0
9:53 am 09:53 Sunny 84 28.9 31 -0.6 15 15 ESE 9 15 29.83 1010 10 16.09344 0 0
10:53 am 10:53 Sunny 87 30.6 28 -2.2 12 12 SE 14 22 29.83 1010 10 16.09344 0 0
11:53 am 11:53 Sunny 90 32.2 26 -3.3 10 10 S 14 22 29.8 1009 10 16.09344 0 0
12:43 pm 12:43 Sunny 92 33.3 21 -6.1 7 7 SSW 16 26 29.62 1003 10 16.09344 0 0
12:53 pm 12:53 Sunny 93 33.9 21 -6.1 7 7 SW 17 28 29.77 1008 10 16.09344 0 0
1:53 pm 13:53 Sunny 93 33.9 16 -8.9 6 6 WSW 16 26 29.74 1007 10 16.09344 0 0
2:53 pm 14:53 Sunny 94 34.4 12 -11.1 5 5 SW 20 31 29.74 1007 10 16.09344 0 0
3:53 pm 15:53 Sunny 94 34.4 11 -11.7 4 4 SSW 20 31 29.71 1006 10 16.09344 0 0
4:53 pm 16:53 Sunny 93 33.9 9 -12.8 4 4 SSW 16 26 29.68 1005 10 16.09344 0 0
5:53 pm 17:53 Sunny 92 33.3 8 -13.3 4 4 SSW 14 22 29.68 1005 10 16.09344 0 0
6:53 pm 18:53 Sunny 89 31.7 10 -12.2 5 5 WSW 14 22 29.68 1005 10 16.09344 0 0
7:53 pm 19:53 Clear 86 30 15 -9.4 7 7 WSW 14 22 29.68 1005 10 16.09344 0 0
8:53 pm 20:53 Clear 84 28.9 15 -9.4 7 7 W 12 19 29.71 1006 10 16.09344 0 0
9:53 pm 21:53 Clear 82 27.8 17 -8.3 9 9 W 15 24 29.71 1006 10 16.09344 0 0
10:53 pm 22:53 Clear 80 26.7 14 -10 8 8 SW 6 9 29.74 1007 10 16.09344 0 0
11:53 pm 23:53 Clear 77 25 12 -11.1 8 8 SW 15 24 29.71 1006 10 16.09344 0 0

Powered by AerisWeather